Regional Weather Roundup
Issued by NWS Bismarck, ND

Home | Current Version | Previous Version | Text Only | Print | Product List | Glossary On
Versions: 1 2 3 4 5 6 7 8 9 10 11 12 13 14 15 16 17 18 19 20 21 22 23 24 25 26 27 28 29 30 31 32 33 34 35 36 37 38 39 40 41 42 43 44 45 46 47 48 49 50
000
ASUS43 KBIS 190359
RWRBIS

NWR BROADCAST TEXT
NATIONAL WEATHER SERVICE BISMARCK ND
1000 PM CST THU DEC 18 2014

NOTE: "FAIR" INDICATES FEW OR NO CLOUDS BELOW 12,000 FEET WITH NO
SIGNIFICANT WEATHER AND/OR OBSTRUCTIONS TO VISIBILITY.


CITY           SKY/WX    TMP DP  RH WIND       PRES   REMARKS
WILLISTON      CLOUDY    28  27  96 S3        29.92F FOG
MINOT          CLOUDY    24  20  84 E3        29.96F
MINOT AFB      NOT AVBL
BISMARCK       CLOUDY    28  26  92 S5        30.01F
DICKINSON      NOT AVBL
GARRISON         N/A     28  25  88 S6        29.96S
HETTINGER ARPT CLEAR     22  19  89 CALM      29.96S
JAMESTOWN      NOT AVBL
CARRINGTON     CLOUDY    23  23 100 MISG      30.04F FOG
CROSBY         CLOUDY    27  27 100 SW5       29.93S FOG
HARVEY         CLOUDY    25  25 100 S7        30.01S FOG     WCI  17
HAZEN          CLOUDY    30  27  86 S5        29.97F
OAKES            N/A     25  25 100 S9        30.10S WCI  15
WATFORD CITY   FOG       25  25 100 CALM      29.90F VSB 1/4
$$

CITY           SKY/WX    TMP DP  RH WIND       PRES   REMARKS
GRAND FORKS    CLOUDY    20  16  84 S12       30.14F WCI   8
GRAND FORKS AF NOT AVBL
DEVILS LAKE    CLOUDY    21  14  73 S10       30.02F WCI  10
FARGO          CLOUDY    21  16  81 S13       30.16S WCI   9
GWINNER        MOCLDY    25  25 100 MISG      30.13S
ROLLA          FOG       19  19 100 S10       30.00F VSB 1/2 WCI   8
$$

CITY           SKY/WX    TMP DP  RH WIND       PRES   REMARKS
ABERDEEN       CLOUDY    27  23  85 S10       30.12S WCI  17
MOBRIDGE       CLEAR     23  21  92 SE8       30.02F WCI  14
BUFFALO          N/A     29  23  78 W10       29.89S WCI  20
RAPID CITY     CLEAR     21  19  92 W3        30.01S
GLASGOW        PTCLDY    24  21  88 S3        29.90S FOG
SIDNEY         PTCLDY    19  18  93 CALM      29.94S
WOLF POINT     MOCLDY    18  14  84 CALM      29.93S
GLENDIVE       PTCLDY    28  23  80 SW10      29.93S WCI  19
MILES CITY     CLOUDY    29  24  82 S7        29.95S
BAKER          CLEAR     31  24  75 SW12      29.95R
$$

CITY           SKY/WX    TMP DP  RH WIND       PRES   REMARKS
BILLINGS       PTCLDY    32  19  58 SW22G28   29.98S WCI  19
GREAT FALLS    CLEAR     36  27  69 SW22      29.89F
$$



USA.gov is the U.S. government's official web portal to all federal, state and local government web resources and services.